Flag for France Weather past 2 weeks in Strasbourg, France

Now
54 °F

Partly cloudy.


Feels Like: 54 °F
Forecast: 55 / 66 °F
Wind: 1 mph from North

Location: Strasbourg Airport

Current Time: May 29, 2015 at 6:55:27 AM

Latest Report: May 29, 2015 at 6:30 AM


Visibility: N/A

Pressure: 29.95 "Hg

Humidity: 94%

Dew point: 52 °F

Location of StrasbourgLocation

Historic Weather in Strasbourg — Graph

°F

Strasbourg temperature yesterday

Maximum temperature yesterday: 75 °F (at 4:30 PM)
Minimum temperature yesterday: 43 °F (at 5:00 AM)
Average temperature yesterday: 60 °F

Past Weeks' High & Low Weather Summary

 TemperatureHumidityPressure
High77 °F (May 18, 4:30 PM)100% (May 15, 11:00 PM)30.33 "Hg (May 15, 11:00 PM)
Low41 °F (May 22, 5:30 AM)26% (May 22, 7:30 PM)29.74 "Hg (May 18, 5:30 PM)
Average59 °F65%30.07 "Hg
* Reported May 14 5:00 AM — May 29 5:30 AM, Strasbourg, Weather by CustomWeather, © 2015

Note: Actual official high and low records may vary slightly from our data, if they occured in-between our weather recording intervals... More about our weather records

Advertising

Strasbourg weather history for previous 24 hours

 ConditionsComfort  
Time TempWeatherWind HumidityBarometerVisibility
5:30 AM
Fri, May 29
55 °FMostly cloudy.3 mph94%29.95 "HgN/A
5:00 AM55 °FPassing clouds.2 mph94%29.95 "HgN/A
4:30 AM55 °FPartly cloudy.1 mph94%29.95 "HgN/A
4:00 AM55 °FPassing clouds.No wind88%29.98 "HgN/A
3:30 AM57 °FRain. Passing clouds.5 mph82%29.98 "Hg6 mi
3:00 AM59 °FMostly cloudy.1 mph77%29.98 "HgN/A
2:30 AM57 °FMostly cloudy.5 mph82%29.98 "HgN/A
2:00 AM57 °FMostly cloudy.8 mph82%29.98 "HgN/A
1:30 AM59 °FPassing clouds.9 mph77%29.98 "HgN/A
1:00 AM59 °FClear.5 mph77%30.01 "Hg10 mi
12:00 AM59 °FClear.8 mph77%30.01 "Hg10 mi
11:30 PM
Thu, May 28
59 °FPassing clouds.9 mph82%30.01 "HgN/A
11:00 PM61 °FPartly cloudy.9 mph77%29.98 "HgN/A
10:30 PM64 °FMild.5 mph56%29.98 "HgN/A
10:00 PM66 °FPassing clouds.5 mph49%29.98 "HgN/A
9:30 PM68 °FPassing clouds.5 mph46%29.98 "HgN/A
9:00 PM70 °FSunny.7 mph43%29.98 "Hg10 mi
8:30 PM70 °FSunny.8 mph40%29.98 "Hg10 mi
8:00 PM70 °FPartly sunny.9 mph40%29.98 "HgN/A
7:30 PM72 °FPassing clouds.12 mph38%29.98 "HgN/A
7:00 PM72 °FPassing clouds.10 mph41%29.95 "HgN/A
6:30 PM72 °FPassing clouds.13 mph38%29.98 "HgN/A
6:00 PM73 °FSunny.13 mph33%29.98 "Hg10 mi
5:30 PM73 °FPassing clouds.12 mph33%29.98 "HgN/A
5:00 PM73 °FPassing clouds.13 mph33%29.98 "HgN/A
4:30 PM75 °FPassing clouds.12 mph31%29.98 "HgN/A
4:00 PM73 °FPassing clouds.10 mph36%29.98 "HgN/A
3:30 PM72 °FPassing clouds.6 mph36%30.01 "HgN/A
3:00 PM72 °FPassing clouds.9 mph41%30.01 "HgN/A
2:30 PM72 °FPassing clouds.10 mph38%30.01 "HgN/A
2:00 PM70 °FPartly sunny.6 mph40%30.04 "HgN/A
1:30 PM70 °FScattered clouds.8 mph40%30.04 "HgN/A
1:00 PM70 °FPassing clouds.9 mph43%30.04 "HgN/A
12:30 PM68 °FPassing clouds.8 mph46%30.07 "HgN/A
12:00 PM68 °FPassing clouds.10 mph46%30.07 "HgN/A
11:30 AM66 °FPassing clouds.8 mph46%30.07 "HgN/A
11:00 AM64 °FPassing clouds.9 mph49%30.07 "HgN/A
10:30 AM63 °FPassing clouds.8 mph56%30.09 "HgN/A
10:00 AM61 °FPassing clouds.7 mph55%30.09 "HgN/A
9:30 AM59 °FPassing clouds.6 mph59%30.09 "HgN/A
9:00 AM55 °FPassing clouds.5 mph67%30.09 "HgN/A
8:30 AM54 °FPassing clouds.6 mph72%30.12 "HgN/A
8:00 AM50 °FPassing clouds.6 mph76%30.09 "HgN/A
7:30 AM48 °FPassing clouds.5 mph82%30.12 "HgN/A
7:00 AM46 °FSunny.3 mph87%30.09 "Hg10 mi
6:30 AM45 °FClear.2 mph87%30.09 "Hg10 mi
6:00 AM43 °FClear.2 mph87%30.09 "Hg10 mi
Weather by CustomWeather, © 2015

See weather overviewHow to use our weather pages